FW8685 Weather Reports


time (UTC)temp
C
wind
direction
speed
KPH
gust
KPH
rain 1hr
cm
rain 24hr
cm
rain mn
cm
humidity
%
barometer
mb
20260505070520 18 51 14.5 20.9 0.00 0.00 0.00 79 1000.5
20260505070048 17 54 12.9 17.7 0.00 0.00 0.00 79 1000.5
20260505065523 17 57 11.3 17.7 0.00 0.00 0.00 79 1000.5
20260505065021 17 44 6.4 17.7 0.00 0.00 0.00 79 1000.5
20260505064541 17 46 9.7 17.7 0.00 0.00 0.00 78 1000.4
20260505064021 17 61 6.4 12.9 0.00 0.00 0.00 78 1000.4
20260505063521 17 47 6.4 14.5 0.00 0.00 0.00 78 1000.3
20260505063039 17 22 6.4 16.1 0.00 0.00 0.00 78 1000.2
20260505062521 17 17 6.4 19.3 0.00 0.00 0.00 78 1000.2
20260505062021 17 352 9.7 19.3 0.00 0.00 0.00 79 1000.0
20260505061541 17 27 9.7 14.5 0.00 0.00 0.00 78 999.9
20260505061020 17 16 9.7 14.5 0.00 0.00 0.00 78 999.7
20260505060523 17 13 6.4 12.9 0.00 0.00 0.00 78 999.7
20260505060039 17 36 4.8 9.7 0.00 0.00 0.00 78 999.6
20260505055521 17 46 6.4 12.9 0.00 0.00 0.00 77 999.6
20260505055021 17 51 4.8 12.9 0.00 0.00 0.00 76 999.5
20260505054540 17 47 8.0 12.9 0.00 0.00 0.00 76 999.6
20260505054022 18 30 6.4 11.3 0.00 0.00 0.00 75 999.6
20260505053527 18 39 4.8 12.9 0.00 0.00 0.00 75 999.5
20260505053049 18 94 6.4 14.5 0.00 0.00 0.00 74 999.4
20260505052521 18 128 8.0 20.9 0.00 0.00 0.00 74 999.3
20260505052021 18 129 6.4 20.9 0.00 0.00 0.00 74 999.1
20260505051539 18 135 9.7 17.7 0.00 0.00 0.00 74 999.0
20260505051023 18 163 8.0 14.5 0.00 0.00 0.00 73 999.1
20260505050523 18 130 9.7 14.5 0.00 0.00 0.00 73 999.2
20260505041550 21 150 14.5 27.4 0.00 0.00 0.00 72 999.2
20260505041022 21 174 16.1 27.4 0.00 0.00 0.00 73 999.1
20260505040522 21 147 16.1 27.4 0.00 0.00 0.00 73 999.3
20260505040048 21 130 14.5 27.4 0.00 0.00 0.00 72 999.4
20260505035520 21 150 12.9 27.4 0.00 0.00 0.00 72 999.4
20260505035020 21 122 16.1 22.5 0.00 0.00 0.00 72 999.0
20260505034538 21 118 12.9 17.7 0.00 0.00 0.00 71 999.3
20260505034021 21 119 11.3 17.7 0.00 0.00 0.00 71 999.6
20260505033521 21 104 11.3 16.1 0.00 0.00 0.00 71 999.8
20260505033039 22 132 8.0 19.3 0.00 0.00 0.00 70 999.8
20260505032521 22 133 8.0 25.7 0.00 0.00 0.00 70 999.6
20260505032021 22 165 12.9 32.2 0.00 0.00 0.00 70 999.5
20260505031543 22 169 16.1 37.0 0.00 0.00 0.00 70 999.5
20260505031020 22 149 20.9 37.0 0.00 0.00 0.00 70 999.5
20260505030520 22 153 20.9 32.2 0.00 0.00 0.00 70 999.6
20260505030037 22 174 20.9 32.2 0.00 0.00 0.00 70 999.8
20260505025520 22 148 20.9 32.2 0.00 0.00 0.00 69 999.8
20260505025022 22 150 14.5 25.7 0.00 0.00 0.00 68 1000.0
20260505024547 22 157 14.5 20.9 0.00 0.00 0.00 68 999.8
20260505024023 22 160 11.3 24.1 0.00 0.00 0.00 67 999.7
20260505023523 22 151 11.3 24.1 0.00 0.00 0.00 68 999.5
20260505023041 22 138 12.9 25.7 0.00 0.00 0.00 67 999.6
20260505022523 22 193 14.5 27.4 0.00 0.00 0.00 67 999.8
20260505022021 22 147 17.7 27.4 0.00 0.00 0.00 67 999.7
20260505021539 22 175 14.5 24.1 0.00 0.00 0.00 66 1000.0
20260505021022 22 180 14.5 29.0 0.00 0.00 0.00 66 1000.0
20260505020521 22 174 16.1 29.0 0.00 0.00 0.00 66 999.8
20260505020038 22 160 16.1 25.7 0.00 0.00 0.00 65 999.4
20260505015521 22 155 12.9 27.4 0.00 0.00 0.00 64 999.5
20260505015022 22 153 14.5 29.0 0.00 0.00 0.00 64 999.3
20260505014558 22 153 17.7 29.0 0.00 0.00 0.00 63 999.1
20260505014022 23 166 14.5 24.1 0.00 0.00 0.00 63 999.2
20260505013520 23 173 14.5 22.5 0.00 0.00 0.00 62 999.1
20260505013038 23 150 14.5 20.9 0.00 0.00 0.00 61 999.0
20260505012521 23 146 12.9 17.7 0.00 0.00 0.00 61 999.2
20260505012022 23 148 9.7 19.3 0.00 0.00 0.00 60 999.0
20260505011548 23 179 11.3 25.7 0.00 0.00 0.00 60 998.7
20260505011021 23 162 12.9 25.7 0.00 0.00 0.00 59 998.7
20260505010521 23 136 12.9 24.1 0.00 0.00 0.00 58 998.5
20260505010040 23 147 16.1 24.1 0.00 0.00 0.00 58 998.7
20260505005521 24 159 12.9 22.5 0.00 0.00 0.00 58 998.7
20260505005023 24 144 8.0 19.3 0.00 0.00 0.00 57 998.8
20260505004541 24 155 11.3 20.9 0.00 0.00 0.00 57 999.0
20260505004022 24 150 14.5 20.9 0.00 0.00 0.00 56 999.0
20260505003521 24 143 11.3 20.9 0.00 0.00 0.00 56 998.9
20260505003037 24 168 12.9 22.5 0.00 0.00 0.00 55 998.9
20260505002523 25 182 11.3 22.5 0.00 0.00 0.00 55 999.1
20260505002020 25 202 12.9 24.1 0.00 0.00 0.00 55 999.0
20260505001538 25 184 11.3 24.1 0.00 0.00 0.00 54 999.1
20260505001023 25 158 14.5 22.5 0.00 0.00 0.00 54 999.0
20260505000526 25 182 12.9 22.5 0.00 0.00 0.00 53 999.2
20260505000048 25 141 14.5 27.4 0.00 0.00 0.00 53 999.1
20260504235520 25 165 14.5 27.4 0.00 0.00 0.00 53 999.0
20260504235024 25 173 14.5 27.4 0.00 0.00 0.00 52 999.2
20260504234545 25 193 12.9 37.0 0.00 0.00 0.00 51 999.2
20260504234025 26 175 17.7 37.0 0.00 0.00 0.00 51 999.1
20260504233521 26 149 19.3 32.2 0.00 0.00 0.00 50 999.1
20260504233056 26 215 19.3 32.2 0.00 0.00 0.00 50 999.3
20260504232522 26 198 17.7 29.0 0.00 0.00 0.00 48 999.3
20260504232020 26 210 12.9 29.0 0.00 0.00 0.00 48 999.2
20260504231540 26 171 17.7 32.2 0.00 0.00 0.00 47 999.2
20260504231023 26 214 17.7 33.8 0.00 0.00 0.00 47 999.1
20260504230520 26 188 19.3 33.8 0.00 0.00 0.00 48 999.3
20260504230039 26 181 17.7 33.8 0.00 0.00 0.00 48 999.1
20260504225521 27 199 14.5 35.4 0.00 0.00 0.00 47 999.1
20260504225021 27 188 19.3 38.6 0.00 0.00 0.00 46 999.2
20260504224540 27 158 22.5 38.6 0.00 0.00 0.00 47 999.2
20260504224023 27 185 14.5 37.0 0.00 0.00 0.00 47 999.2
20260504223521 27 161 20.9 37.0 0.00 0.00 0.00 46 999.2
20260504223054 27 198 17.7 32.2 0.00 0.00 0.00 47 999.2
20260504222522 27 181 19.3 38.6 0.00 0.00 0.00 46 999.2
20260504222020 27 188 19.3 38.6 0.00 0.00 0.00 46 999.2
20260504221540 27 165 17.7 29.0 0.00 0.00 0.00 46 999.1
20260504221021 27 181 19.3 37.0 0.00 0.00 0.00 47 999.3
20260504220521 27 190 17.7 38.6 0.00 0.00 0.00 45 999.2
20260504220040 27 209 19.3 38.6 0.00 0.00 0.00 45 999.3
20260504215520 27 158 19.3 37.0 0.00 0.00 0.00 44 999.3
20260504215021 27 203 20.9 33.8 0.00 0.00 0.00 44 999.4
20260504214537 27 202 17.7 38.6 0.00 0.00 0.00 44 999.5
20260504214021 27 194 20.9 38.6 0.00 0.00 0.00 45 999.5
20260504213521 28 181 17.7 35.4 0.00 0.00 0.00 43 999.6
20260504213050 28 217 16.1 35.4 0.00 0.00 0.00 42 999.5
20260504212520 28 188 20.9 33.8 0.00 0.00 0.00 41 999.4
20260504212023 29 167 14.5 37.0 0.00 0.00 0.00 43 999.5
20260504211537 28 164 19.3 37.0 0.00 0.00 0.00 43 999.6
20260504211022 28 219 20.9 35.4 0.00 0.00 0.00 42 999.8
20260504210520 28 169 16.1 35.4 0.00 0.00 0.00 40 999.7
20260504210040 29 182 22.5 35.4 0.00 0.00 0.00 41 999.8
20260504205521 29 173 20.9 38.6 0.00 0.00 0.00 42 999.8
20260504205023 29 194 24.1 38.6 0.00 0.00 0.00 41 999.9
20260504204543 29 200 16.1 32.2 0.00 0.00 0.00 40 999.9
20260504204025 29 173 17.7 30.6 0.00 0.00 0.00 41 999.9
20260504203521 29 204 17.7 38.6 0.00 0.00 0.00 40 1000.0
20260504203051 29 175 17.7 38.6 0.00 0.00 0.00 41 1000.0
20260504202521 29 173 22.5 38.6 0.00 0.00 0.00 41 1000.2
20260504202020 29 159 20.9 38.6 0.00 0.00 0.00 43 1000.2
20260504201539 29 194 22.5 37.0 0.00 0.00 0.00 41 1000.3
20260504201023 29 201 14.5 37.0 0.00 0.00 0.00 40 1000.3
20260504200520 29 181 17.7 37.0 0.00 0.00 0.00 41 1000.3
20260504200038 29 186 14.5 33.8 0.00 0.00 0.00 41 1000.4
20260504195520 30 224 11.3 32.2 0.00 0.00 0.00 41 1000.5
20260504195020 29 198 16.1 32.2 0.00 0.00 0.00 42 1000.5
20260504194537 29 147 11.3 17.7 0.00 0.00 0.00 40 1000.6
20260504194021 29 215 9.7 19.3 0.00 0.00 0.00 40 1000.6
20260504193524 29 213 6.4 27.4 0.00 0.00 0.00 39 1000.7
20260504193037 28 219 11.3 27.4 0.00 0.00 0.00 42 1000.9
20260504192522 28 186 12.9 25.7 0.00 0.00 0.00 41 1000.8
20260504192021 29 213 8.0 27.4 0.00 0.00 0.00 39 1000.9
20260504191541 29 231 14.5 30.6 0.00 0.00 0.00 39 1001.0
20260504191021 29 178 16.1 30.6 0.00 0.00 0.00 43 1000.9
20260504190521 28 150 9.7 29.0 0.00 0.00 0.00 42 1001.0
20260504190037 28 158 8.0 29.0 0.00 0.00 0.00 42 1001.0
20260504185520 28 256 14.5 32.2 0.00 0.00 0.00 41 1001.1
20260504185021 28 216 16.1 32.2 0.00 0.00 0.00 41 1001.2
20260504184540 28 254 16.1 29.0 0.00 0.00 0.00 42 1001.1
20260504184021 28 246 11.3 27.4 0.00 0.00 0.00 42 1001.1
20260504183522 28 169 11.3 27.4 0.00 0.00 0.00 44 1001.1
20260504183037 28 202 14.5 25.7 0.00 0.00 0.00 41 1001.2
20260504182521 28 185 8.0 22.5 0.00 0.00 0.00 42 1001.3
20260504182021 28 235 9.7 22.5 0.00 0.00 0.00 43 1001.4
20260504181544 28 225 9.7 25.7 0.00 0.00 0.00 43 1001.4
20260504181021 28 190 9.7 25.7 0.00 0.00 0.00 42 1001.4
20260504180522 28 152 9.7 20.9 0.00 0.00 0.00 44 1001.6
20260504180037 27 188 12.9 30.6 0.00 0.00 0.00 43 1001.6
20260504175522 27 248 8.0 30.6 0.00 0.00 0.00 41 1001.6
20260504175021 27 198 14.5 25.7 0.00 0.00 0.00 42 1001.6
20260504174536 27 242 9.7 24.1 0.00 0.00 0.00 43 1001.8
20260504174022 27 245 11.3 25.7 0.00 0.00 0.00 45 1001.7
20260504173522 27 234 12.9 30.6 0.00 0.00 0.00 44 1001.8
20260504173032 27 201 12.9 30.6 0.00 0.00 0.00 44 1001.7
20260504172520 26 205 14.5 27.4 0.00 0.00 0.00 44 1001.7
20260504172021 26 202 14.5 29.0 0.00 0.00 0.00 46 1001.7
20260504171545 26 183 12.9 29.0 0.00 0.00 0.00 44 1001.7
20260504171023 26 225 11.3 29.0 0.00 0.00 0.00 44 1001.8
20260504170523 26 245 14.5 29.0 0.00 0.00 0.00 47 1001.8
20260504151021 22 218 19.3 40.2 0.00 0.00 0.00 52 1002.3
20260504150520 22 227 17.7 40.2 0.00 0.00 0.00 50 1002.3
20260504141020 20 244 14.5 35.4 0.00 0.00 0.00 55 1002.5
20260504140521 20 204 14.5 33.8 0.00 0.00 0.00 54 1002.5
20260504130525 17 221 14.5 37.0 0.00 0.00 0.00 59 1002.5
20260504110524 17 217 16.1 29.0 0.00 0.00 0.00 56 1002.4
20260504100520 17 223 19.3 38.6 0.00 0.00 0.00 53 1002.9
20260504081538 18 205 12.9 40.2 0.00 0.00 0.00 48 1003.8
20260504081022 18 211 20.9 40.2 0.00 0.00 0.00 48 1003.8
20260504080522 18 226 19.3 38.6 0.00 0.00 0.00 48 1003.8